Peotone Weather
Station Historical Data
 
Daily Summary for November 24, 2014 Units:  English    Metric   Both
« Previous Day
Next Day »
Daily Weekly Monthly Yearly Custom
  Current: High: Low: Average:
Temperature: 29.8 °F 49.3 °F 29.8 °F 40 °F
Dew Point: 26.7 °F 48.2 °F 26.7 °F 38.5 °F
Humidity: 88% 97% 88% 95%
Wind Speed: 25.3mph 38.0mph 0.0mph 14.5mph
Wind Gust: 29.9mph 41.4mph - -
WindWest - - WSW
Pressure: 29.69 in 29.69 in 29.08 in -
Precipitation: 0.53 in      
Historical Graphs
 
 
Tabular Data for November 24, 2014
Time Temperature Dew Point Pressure Wind Wind Speed Wind Gust Humidity Rainfall Rate (Hourly) solar Conditions
00:01 49.3 °F 48.2 °F 29.11 in SW 9.2 mph 9.2 mph 96% 0.05 in 0.00 W/m2
00:06 49.2 °F 48.1 °F 29.11 in SW 4.6 mph 9.2 mph 96% 0.04 in 0.00 W/m2
00:11 49.2 °F 48.1 °F 29.11 in SW 6.9 mph 8.1 mph 96% 0.02 in 0.00 W/m2
00:16 49.1 °F 48.0 °F 29.11 in SSW 1.1 mph 9.2 mph 96% 0.02 in 0.00 W/m2
00:21 49.1 °F 48.0 °F 29.11 in SW 4.6 mph 9.2 mph 96% 0.03 in 0.00 W/m2
00:26 49.0 °F 47.9 °F 29.11 in SW 4.6 mph 4.6 mph 96% 0.02 in 0.00 W/m2
00:31 49.0 °F 47.9 °F 29.10 in SW 8.1 mph 9.2 mph 96% 0.01 in 0.00 W/m2
00:36 49.1 °F 48.0 °F 29.10 in SW 10.3 mph 12.6 mph 96% 0.01 in 0.00 W/m2
00:42 49.1 °F 48.0 °F 29.10 in SW 9.2 mph 12.6 mph 96% 0.01 in 0.00 W/m2
00:47 49.2 °F 48.1 °F 29.10 in WSW 11.5 mph 12.6 mph 96% 0.01 in 0.00 W/m2
00:52 49.2 °F 48.1 °F 29.10 in SW 4.6 mph 8.1 mph 96% 0.01 in 0.00 W/m2
00:57 49.2 °F 48.1 °F 29.10 in SW 12.6 mph 12.6 mph 96% 0.02 in 0.00 W/m2
01:02 49.2 °F 48.1 °F 29.10 in WSW 5.8 mph 11.5 mph 96% 0.02 in 0.00 W/m2
01:07 49.2 °F 48.1 °F 29.10 in SW 8.1 mph 11.5 mph 96% 0.03 in 0.00 W/m2
01:12 49.2 °F 48.1 °F 29.10 in SW 10.3 mph 16.1 mph 96% 0.03 in 0.00 W/m2
01:18 49.1 °F 48.0 °F 29.10 in WSW 5.8 mph 10.3 mph 96% 0.03 in 0.00 W/m2
01:22 49.1 °F 48.0 °F 29.10 in WSW 4.6 mph 12.6 mph 96% 0.02 in 0.00 W/m2
01:28 49.0 °F 47.9 °F 29.10 in WSW 10.3 mph 10.3 mph 96% 0.03 in 0.00 W/m2
01:33 49.0 °F 48.2 °F 29.10 in SW 9.2 mph 12.6 mph 97% 0.03 in 0.00 W/m2
01:38 49.0 °F 48.2 °F 29.10 in SW 6.9 mph 10.3 mph 97% 0.03 in 0.00 W/m2
01:43 49.0 °F 48.2 °F 29.10 in WSW 12.6 mph 12.6 mph 97% 0.03 in 0.00 W/m2
01:48 48.9 °F 48.1 °F 29.10 in SW 8.1 mph 11.5 mph 97% 0.03 in 0.00 W/m2
01:53 48.9 °F 48.1 °F 29.11 in WSW 12.6 mph 12.6 mph 97% 0.03 in 0.00 W/m2
01:58 48.9 °F 48.1 °F 29.11 in WSW 11.5 mph 17.2 mph 97% 0.02 in 0.00 W/m2
02:04 48.9 °F 48.1 °F 29.11 in SW 6.9 mph 12.6 mph 97% 0.02 in 0.00 W/m2
02:09 48.8 °F 48.0 °F 29.10 in WSW 6.9 mph 11.5 mph 97% 0.01 in 0.00 W/m2
02:14 48.9 °F 48.1 °F 29.11 in WSW 9.2 mph 12.6 mph 97% 0.01 in 0.00 W/m2
02:19 48.9 °F 48.1 °F 29.11 in WSW 8.1 mph 14.9 mph 97% 0.01 in 0.00 W/m2
02:24 48.9 °F 48.1 °F 29.11 in WSW 8.1 mph 12.6 mph 97% 0.01 in 0.00 W/m2
02:29 48.9 °F 48.1 °F 29.11 in WSW 8.1 mph 12.6 mph 97% 0.00 in 0.00 W/m2
02:34 48.9 °F 48.1 °F 29.11 in WSW 12.6 mph 14.9 mph 97% 0.01 in 0.00 W/m2
02:39 49.0 °F 48.2 °F 29.12 in SW 10.3 mph 11.5 mph 97% 0.01 in 0.00 W/m2
02:45 49.0 °F 48.2 °F 29.11 in WSW 8.1 mph 14.9 mph 97% 0.01 in 0.00 W/m2
02:50 49.0 °F 48.2 °F 29.11 in SW 9.2 mph 14.9 mph 97% 0.01 in 0.00 W/m2
02:55 49.0 °F 48.2 °F 29.11 in WSW 5.8 mph 9.2 mph 97% 0.02 in 0.00 W/m2
03:00 49.0 °F 48.2 °F 29.11 in WSW 8.1 mph 12.6 mph 97% 0.03 in 0.00 W/m2
03:05 49.0 °F 48.2 °F 29.11 in SW 2.3 mph 12.6 mph 97% 0.06 in 0.00 W/m2
03:10 49.0 °F 48.2 °F 29.11 in SSW 6.9 mph 8.1 mph 97% 0.07 in 0.00 W/m2
03:15 48.9 °F 48.1 °F 29.10 in SW 5.8 mph 8.1 mph 97% 0.08 in 0.00 W/m2
03:20 48.9 °F 48.1 °F 29.11 in SSW 4.6 mph 8.1 mph 97% 0.09 in 0.00 W/m2
03:26 48.9 °F 48.1 °F 29.10 in SW 4.6 mph 9.2 mph 97% 0.09 in 0.00 W/m2
03:31 48.9 °F 48.1 °F 29.10 in SW 5.8 mph 9.2 mph 97% 0.09 in 0.00 W/m2
03:36 48.9 °F 48.1 °F 29.10 in SW 3.4 mph 9.2 mph 97% 0.10 in 0.00 W/m2
03:41 48.8 °F 48.0 °F 29.10 in SW 4.6 mph 8.1 mph 97% 0.09 in 0.00 W/m2
03:46 48.9 °F 48.1 °F 29.10 in SW 4.6 mph 8.1 mph 97% 0.09 in 0.00 W/m2
03:51 48.8 °F 48.0 °F 29.10 in SW 6.9 mph 10.3 mph 97% 0.09 in 0.00 W/m2
03:56 48.8 °F 48.0 °F 29.09 in SW 4.6 mph 8.1 mph 97% 0.09 in 0.00 W/m2
04:01 48.8 °F 48.0 °F 29.10 in SW 8.1 mph 8.1 mph 97% 0.08 in 0.00 W/m2
04:06 48.8 °F 48.0 °F 29.10 in SW 5.8 mph 8.1 mph 97% 0.06 in 0.00 W/m2
04:11 48.8 °F 48.0 °F 29.10 in SW 4.6 mph 8.1 mph 97% 0.04 in 0.00 W/m2
04:16 48.8 °F 48.0 °F 29.10 in SSW 4.6 mph 8.1 mph 97% 0.03 in 0.00 W/m2
04:21 48.8 °F 48.0 °F 29.10 in SSW 3.4 mph 6.9 mph 97% 0.01 in 0.00 W/m2
04:26 48.8 °F 48.0 °F 29.09 in SSW 4.6 mph 8.1 mph 97% 0.01 in 0.00 W/m2
04:31 48.8 °F 48.0 °F 29.09 in SW 5.8 mph 9.2 mph 97% 0.01 in 0.00 W/m2
04:36 48.8 °F 48.0 °F 29.09 in WSW 6.9 mph 10.3 mph 97% 0.01 in 0.00 W/m2
04:41 48.9 °F 48.1 °F 29.09 in SW 3.4 mph 4.6 mph 97% 0.00 in 0.00 W/m2
04:46 48.9 °F 48.1 °F 29.09 in SW 4.6 mph 6.9 mph 97% 0.00 in 0.00 W/m2
04:51 48.9 °F 48.1 °F 29.09 in SW 5.8 mph 6.9 mph 97% 0.00 in 0.00 W/m2
04:57 48.9 °F 48.1 °F 29.09 in SW 6.9 mph 8.1 mph 97% 0.00 in 0.00 W/m2
05:02 48.9 °F 48.1 °F 29.09 in SW 6.9 mph 9.2 mph 97% 0.00 in 0.00 W/m2
05:07 48.9 °F 48.1 °F 29.09 in SW 3.4 mph 6.9 mph 97% 0.00 in 0.00 W/m2
05:12 48.8 °F 48.0 °F 29.09 in SW 5.8 mph 6.9 mph 97% 0.00 in 0.00 W/m2
05:17 48.8 °F 48.0 °F 29.09 in SW 4.6 mph 4.6 mph 97% 0.00 in 0.00 W/m2
05:22 48.8 °F 48.0 °F 29.09 in SW 5.8 mph 6.9 mph 97% 0.00 in 0.00 W/m2
05:27 48.7 °F 47.9 °F 29.09 in SW 4.6 mph 6.9 mph 97% 0.00 in 0.00 W/m2
05:32 48.7 °F 47.9 °F 29.09 in SW 4.6 mph 5.8 mph 97% 0.00 in 0.00 W/m2
05:37 48.7 °F 47.9 °F 29.08 in SW 3.4 mph 5.8 mph 97% 0.00 in 0.00 W/m2
05:42 48.7 °F 47.9 °F 29.09 in SW 5.8 mph 5.8 mph 97% 0.00 in 0.00 W/m2
05:48 48.7 °F 47.9 °F 29.08 in SW 5.8 mph 5.8 mph 97% 0.00 in 0.00 W/m2
05:53 48.7 °F 47.9 °F 29.09 in SW 5.8 mph 6.9 mph 97% 0.00 in 0.00 W/m2
05:58 48.7 °F 47.9 °F 29.09 in SW 2.3 mph 4.6 mph 97% 0.00 in 0.00 W/m2
06:03 48.6 °F 47.8 °F 29.09 in SW 4.6 mph 4.6 mph 97% 0.00 in 0.00 W/m2
06:08 48.6 °F 47.8 °F 29.09 in SW 1.1 mph 5.8 mph 97% 0.00 in 0.00 W/m2
06:13 48.6 °F 47.8 °F 29.09 in SW 4.6 mph 6.9 mph 97% 0.01 in 0.00 W/m2
06:18 48.6 °F 47.8 °F 29.09 in SW 3.4 mph 4.6 mph 97% 0.01 in 0.00 W/m2
06:23 48.6 °F 47.8 °F 29.09 in SW 3.4 mph 5.8 mph 97% 0.01 in 0.00 W/m2
06:28 48.5 °F 47.7 °F 29.09 in Calm   5.8 mph 97% 0.01 in 0.00 W/m2
06:34 48.5 °F 47.7 °F 29.10 in SW 3.4 mph 4.6 mph 97% 0.02 in 0.00 W/m2
06:39 48.4 °F 47.6 °F 29.10 in SW 4.6 mph 10.3 mph 97% 0.03 in 0.00 W/m2
06:44 48.3 °F 47.5 °F 29.10 in SW 5.8 mph 8.1 mph 97% 0.05 in 0.00 W/m2
06:49 48.2 °F 47.4 °F 29.11 in West 6.9 mph 12.6 mph 97% 0.06 in 0.00 W/m2
06:54 47.8 °F 47.0 °F 29.11 in WSW 18.4 mph 18.4 mph 97% 0.07 in 0.00 W/m2
06:59 46.9 °F 45.8 °F 29.12 in SW 16.1 mph 17.2 mph 96% 0.08 in 0.00 W/m2
07:04 46.1 °F 45.0 °F 29.12 in West 12.6 mph 24.1 mph 96% 0.09 in 0.00 W/m2
07:09 45.4 °F 44.3 °F 29.12 in WSW 18.4 mph 24.1 mph 96% 0.11 in 0.00 W/m2
07:15 44.6 °F 43.5 °F 29.13 in West 24.1 mph 29.9 mph 96% 0.11 in 0.00 W/m2
07:20 43.9 °F 42.8 °F 29.13 in WSW 20.7 mph 29.9 mph 96% 0.13 in 0.00 W/m2
07:25 43.1 °F 42.0 °F 29.14 in West 13.8 mph 25.3 mph 96% 0.14 in 0.00 W/m2
07:30 42.7 °F 41.6 °F 29.14 in West 14.9 mph 20.7 mph 96% 0.15 in 9.00 W/m2
07:35 42.4 °F 41.3 °F 29.14 in NW 20.7 mph 28.8 mph 96% 0.16 in 7.00 W/m2
07:40 42.1 °F 41.0 °F 29.14 in West 16.1 mph 28.8 mph 96% 0.16 in 9.00 W/m2
07:45 41.8 °F 40.8 °F 29.15 in West 16.1 mph 29.9 mph 96% 0.15 in 5.00 W/m2
07:50 41.4 °F 40.3 °F 29.15 in SW 12.6 mph 25.3 mph 96% 0.15 in 5.00 W/m2
07:55 40.9 °F 39.8 °F 29.15 in West 14.9 mph 28.8 mph 96% 0.16 in 5.00 W/m2
08:00 40.6 °F 39.5 °F 29.16 in WNW 12.6 mph 21.9 mph 96% 0.15 in 9.00 W/m2
08:06 40.3 °F 39.2 °F 29.16 in WNW 8.1 mph 21.9 mph 96% 0.16 in 7.00 W/m2
08:11 40.0 °F 39.0 °F 29.17 in WNW 19.5 mph 27.6 mph 96% 0.16 in 9.00 W/m2
08:16 39.6 °F 38.6 °F 29.17 in WNW 26.4 mph 28.8 mph 96% 0.14 in 11.00 W/m2
08:21 38.9 °F 37.9 °F 29.18 in WNW 12.6 mph 27.6 mph 96% 0.15 in 9.00 W/m2
08:26 38.6 °F 37.3 °F 29.18 in West 20.7 mph 25.3 mph 95% 0.15 in 12.00 W/m2
08:31 38.1 °F 36.8 °F 29.18 in WNW 17.2 mph 29.9 mph 95% 0.15 in 16.00 W/m2
08:36 37.8 °F 36.5 °F 29.19 in West 17.2 mph 28.8 mph 95% 0.15 in 26.00 W/m2
08:41 37.6 °F 36.6 °F 29.19 in West 19.5 mph 32.2 mph 96% 0.14 in 47.00 W/m2
08:46 37.5 °F 36.2 °F 29.20 in West 17.2 mph 35.6 mph 95% 0.14 in 47.00 W/m2
08:51 37.5 °F 36.2 °F 29.21 in West 21.9 mph 28.8 mph 95% 0.14 in 62.00 W/m2
08:56 37.5 °F 36.2 °F 29.22 in WNW 25.3 mph 26.4 mph 95% 0.13 in 62.00 W/m2
09:01 37.4 °F 36.1 °F 29.22 in West 16.1 mph 17.2 mph 95% 0.09 in 42.00 W/m2
09:06 37.3 °F 36.0 °F 29.23 in West 29.9 mph 31.0 mph 95% 0.09 in 44.00 W/m2
09:11 36.9 °F 35.6 °F 29.24 in West 24.1 mph 31.0 mph 95% 0.08 in 63.00 W/m2
09:17 36.6 °F 35.3 °F 29.25 in WSW 12.6 mph 19.5 mph 95% 0.07 in 53.00 W/m2
09:22 36.2 °F 34.9 °F 29.26 in WSW 16.1 mph 19.5 mph 95% 0.06 in 40.00 W/m2
09:27 35.8 °F 34.5 °F 29.26 in West 16.1 mph 26.4 mph 95% 0.05 in 62.00 W/m2
09:32 35.3 °F 34.0 °F 29.27 in WSW 17.2 mph 17.2 mph 95% 0.04 in 65.00 W/m2
09:37 34.8 °F 33.2 °F 29.28 in WSW 18.4 mph 25.3 mph 94% 0.03 in 63.00 W/m2
09:42 34.2 °F 32.7 °F 29.28 in WSW 21.9 mph 25.3 mph 94% 0.02 in 60.00 W/m2
09:47 33.7 °F 32.2 °F 29.29 in WSW 13.8 mph 23.0 mph 94% 0.02 in 51.00 W/m2
09:52 33.5 °F 32.2 °F 29.30 in WSW 21.9 mph 26.4 mph 95% 0.01 in 39.00 W/m2
09:57 33.4 °F 32.1 °F 29.31 in WSW 16.1 mph 27.6 mph 95% 0.02 in 33.00 W/m2
10:03 33.3 °F 32.0 °F 29.32 in West 20.7 mph 21.9 mph 95% 0.02 in 33.00 W/m2
10:08 33.2 °F 31.9 °F 29.32 in West 18.4 mph 23.0 mph 95% 0.01 in 25.00 W/m2
10:13 33.1 °F 31.8 °F 29.33 in West 10.3 mph 23.0 mph 95% 0.01 in 26.00 W/m2
10:18 33.0 °F 31.7 °F 29.33 in West 17.2 mph 25.3 mph 95% 0.02 in 37.00 W/m2
10:23 32.8 °F 31.5 °F 29.34 in WSW 17.2 mph 23.0 mph 95% 0.02 in 40.00 W/m2
10:28 32.7 °F 31.4 °F 29.35 in WSW 38.0 mph 38.0 mph 95% 0.02 in 47.00 W/m2
10:33 32.5 °F 31.2 °F 29.35 in WSW 23.0 mph 24.1 mph 95% 0.02 in 47.00 W/m2
10:39 32.5 °F 31.2 °F 29.35 in WSW 13.8 mph 27.6 mph 95% 0.02 in 58.00 W/m2
10:44 32.4 °F 31.1 °F 29.36 in WSW 12.6 mph 29.9 mph 95% 0.03 in 62.00 W/m2
10:49 32.4 °F 31.1 °F 29.36 in West 24.1 mph 29.9 mph 95% 0.03 in 76.00 W/m2
10:54 32.4 °F 31.1 °F 29.37 in West 16.1 mph 34.5 mph 95% 0.03 in 83.00 W/m2
10:59 32.5 °F 31.2 °F 29.37 in West 9.2 mph 25.3 mph 95% 0.03 in 86.00 W/m2
11:04 32.7 °F 31.4 °F 29.37 in WSW 16.1 mph 20.7 mph 95% 0.03 in 105.00 W/m2
11:09 32.8 °F 31.5 °F 29.37 in WSW 18.4 mph 24.1 mph 95% 0.03 in 93.00 W/m2
11:14 32.8 °F 31.5 °F 29.38 in WSW 17.2 mph 34.5 mph 95% 0.03 in 218.00 W/m2
11:19 32.8 °F 31.5 °F 29.37 in WNW 20.7 mph 34.5 mph 95% 0.03 in 292.00 W/m2
11:24 32.8 °F 31.5 °F 29.38 in WSW 27.6 mph 28.8 mph 95% 0.03 in 281.00 W/m2
11:30 32.7 °F 31.4 °F 29.39 in West 25.3 mph 33.3 mph 95% 0.03 in 163.00 W/m2
11:35 32.7 °F 31.4 °F 29.39 in WSW 29.9 mph 34.5 mph 95% 0.03 in 236.00 W/m2
11:40 32.9 °F 31.4 °F 29.40 in WSW 23.0 mph 33.3 mph 94% 0.03 in 236.00 W/m2
11:45 33.1 °F 31.8 °F 29.40 in West 25.3 mph 27.6 mph 95% 0.02 in 183.00 W/m2
11:50 33.2 °F 31.7 °F 29.41 in West 18.4 mph 25.3 mph 94% 0.02 in 100.00 W/m2
11:55 33.3 °F 32.0 °F 29.42 in WSW 16.1 mph 24.1 mph 95% 0.02 in 56.00 W/m2
12:00 33.1 °F 31.6 °F 29.42 in West 25.3 mph 28.8 mph 94% 0.02 in 91.00 W/m2
12:05 33.0 °F 31.5 °F 29.42 in WSW 23.0 mph 27.6 mph 94% 0.01 in 97.00 W/m2
12:11 33.1 °F 31.6 °F 29.43 in WSW 16.1 mph 36.8 mph 94% 0.01 in 60.00 W/m2
12:16 33.0 °F 31.5 °F 29.43 in West 26.4 mph 33.3 mph 94% 0.01 in 81.00 W/m2
12:21 33.0 °F 31.5 °F 29.43 in West 16.1 mph 26.4 mph 94% 0.01 in 86.00 W/m2
12:26 32.9 °F 31.1 °F 29.43 in West 18.4 mph 35.6 mph 93% 0.00 in 109.00 W/m2
12:31 32.9 °F 30.8 °F 29.44 in WSW 17.2 mph 35.6 mph 92% 0.00 in 139.00 W/m2
12:36 33.0 °F 30.9 °F 29.44 in West 27.6 mph 38.0 mph 92% 0.00 in 90.00 W/m2
12:41 33.1 °F 31.0 °F 29.45 in WNW 27.6 mph 27.6 mph 92% 0.00 in 84.00 W/m2
12:46 33.0 °F 30.7 °F 29.45 in WSW 23.0 mph 23.0 mph 91% 0.00 in 81.00 W/m2
12:51 33.0 °F 30.4 °F 29.46 in WSW 18.4 mph 26.4 mph 90% 0.00 in 76.00 W/m2
12:56 33.0 °F 30.4 °F 29.46 in West 19.5 mph 41.4 mph 90% 0.00 in 69.00 W/m2
13:01 33.1 °F 30.8 °F 29.46 in West 17.2 mph 21.9 mph 91% 0.00 in 49.00 W/m2
13:07 33.2 °F 30.9 °F 29.46 in West 13.8 mph 26.4 mph 91% 0.00 in 49.00 W/m2
13:12 33.1 °F 30.8 °F 29.47 in WSW 19.5 mph 20.7 mph 91% 0.00 in 35.00 W/m2
13:17 33.0 °F 30.7 °F 29.48 in WSW 24.1 mph 24.1 mph 91% 0.00 in 33.00 W/m2
13:22 32.9 °F 30.6 °F 29.48 in WSW 23.0 mph 29.9 mph 91% 0.00 in 77.00 W/m2
13:27 32.8 °F 30.5 °F 29.49 in WSW 20.7 mph 29.9 mph 91% 0.00 in 37.00 W/m2
13:32 32.7 °F 30.4 °F 29.49 in West 29.9 mph 29.9 mph 91% 0.00 in 25.00 W/m2
13:37 32.6 °F 30.3 °F 29.50 in WSW 20.7 mph 28.8 mph 91% 0.00 in 37.00 W/m2
13:42 32.4 °F 30.1 °F 29.50 in West 16.1 mph 23.0 mph 91% 0.00 in 21.00 W/m2
13:48 32.3 °F 30.0 °F 29.51 in WSW 23.0 mph 29.9 mph 91% 0.00 in 21.00 W/m2
13:53 32.2 °F 29.9 °F 29.51 in West 18.4 mph 28.8 mph 91% 0.00 in 23.00 W/m2
13:58 32.2 °F 29.9 °F 29.52 in WSW 20.7 mph 28.8 mph 91% 0.00 in 23.00 W/m2
14:03 32.1 °F 29.8 °F 29.53 in WSW 19.5 mph 29.9 mph 91% 0.00 in 56.00 W/m2
14:08 32.0 °F 29.7 °F 29.53 in WSW 17.2 mph 25.3 mph 91% 0.00 in 46.00 W/m2
14:13 31.9 °F 29.6 °F 29.53 in WSW 26.4 mph 34.5 mph 91% 0.00 in 39.00 W/m2
14:18 31.8 °F 29.5 °F 29.54 in West 13.8 mph 36.8 mph 91% 0.00 in 53.00 W/m2
14:23 31.8 °F 29.2 °F 29.54 in WSW 27.6 mph 27.6 mph 90% 0.00 in 37.00 W/m2
14:29 31.8 °F 29.2 °F 29.55 in West 25.3 mph 41.4 mph 90% 0.00 in 44.00 W/m2
14:34 31.8 °F 29.2 °F 29.55 in West 34.5 mph 34.5 mph 90% 0.00 in 63.00 W/m2
14:39 31.6 °F 29.0 °F 29.56 in SW 17.2 mph 32.2 mph 90% 0.00 in 46.00 W/m2
14:44 31.5 °F 28.9 °F 29.57 in West 13.8 mph 25.3 mph 90% 0.00 in 33.00 W/m2
14:49 31.4 °F 28.8 °F 29.57 in WSW 16.1 mph 28.8 mph 90% 0.00 in 28.00 W/m2
14:54 31.2 °F 28.9 °F 29.57 in WSW 12.6 mph 26.4 mph 91% 0.00 in 18.00 W/m2
14:59 31.2 °F 28.9 °F 29.58 in WSW 29.9 mph 29.9 mph 91% 0.00 in 18.00 W/m2
15:04 31.2 °F 29.1 °F 29.58 in WSW 17.2 mph 31.0 mph 92% 0.00 in 12.00 W/m2
15:10 31.3 °F 29.2 °F 29.59 in West 16.1 mph 28.8 mph 92% 0.00 in 18.00 W/m2
15:15 31.2 °F 29.1 °F 29.59 in West 20.7 mph 28.8 mph 92% 0.00 in 12.00 W/m2
15:20 31.2 °F 29.1 °F 29.59 in West 26.4 mph 28.8 mph 92% 0.00 in 11.00 W/m2
15:25 31.2 °F 29.1 °F 29.60 in West 25.3 mph 25.3 mph 92% 0.00 in 9.00 W/m2
15:30 31.1 °F 29.0 °F 29.60 in West 18.4 mph 35.6 mph 92% 0.00 in 7.00 W/m2
15:35 31.0 °F 29.0 °F 29.61 in WNW 18.4 mph 28.8 mph 92% 0.00 in 7.00 W/m2
15:40 30.9 °F 28.6 °F 29.61 in West 16.1 mph 28.8 mph 91% 0.00 in 5.00 W/m2
15:46 30.9 °F 28.6 °F 29.62 in WSW 28.8 mph 28.8 mph 91% 0.00 in 5.00 W/m2
15:51 30.8 °F 28.5 °F 29.62 in West 16.1 mph 31.0 mph 91% 0.00 in 7.00 W/m2
15:56 30.8 °F 28.5 °F 29.62 in WSW 25.3 mph 26.4 mph 91% 0.00 in 0.00 W/m2
16:01 30.7 °F 28.4 °F 29.63 in West 18.4 mph 28.8 mph 91% 0.00 in 0.00 W/m2
16:06 30.6 °F 28.3 °F 29.63 in WSW 26.4 mph 34.5 mph 91% 0.00 in 0.00 W/m2
16:11 30.4 °F 28.1 °F 29.64 in WSW 19.5 mph 34.5 mph 91% 0.00 in 0.00 W/m2
16:16 30.3 °F 28.0 °F 29.64 in West 24.1 mph 24.1 mph 91% 0.00 in 0.00 W/m2
16:21 30.3 °F 27.7 °F 29.65 in West 18.4 mph 18.4 mph 90% 0.00 in 0.00 W/m2
16:26 30.2 °F 27.6 °F 29.65 in West 24.1 mph 24.1 mph 90% 0.00 in 0.00 W/m2
16:32 30.2 °F 27.6 °F 29.65 in West 18.4 mph 24.1 mph 90% 0.00 in 0.00 W/m2
16:37 30.2 °F 27.6 °F 29.66 in SW 20.7 mph 21.9 mph 90% 0.00 in 0.00 W/m2
16:42 30.2 °F 27.6 °F 29.66 in West 14.9 mph 25.3 mph 90% 0.00 in 0.00 W/m2
16:47 30.2 °F 27.4 °F 29.66 in WSW 26.4 mph 26.4 mph 89% 0.00 in 0.00 W/m2
16:52 30.1 °F 27.3 °F 29.66 in West 17.2 mph 27.6 mph 89% 0.00 in 0.00 W/m2
16:57 30.1 °F 27.3 °F 29.67 in WSW 20.7 mph 26.4 mph 89% 0.00 in 0.00 W/m2
17:02 30.0 °F 27.2 °F 29.68 in WSW 19.5 mph 25.3 mph 89% 0.00 in 0.00 W/m2
17:08 30.0 °F 27.2 °F 29.68 in West 21.9 mph 38.0 mph 89% 0.00 in 0.00 W/m2
17:13 30.0 °F 27.2 °F 29.68 in WSW 26.4 mph 26.4 mph 89% 0.00 in 0.00 W/m2
17:18 29.9 °F 26.8 °F 29.69 in WSW 14.9 mph 27.6 mph 88% 0.00 in 0.00 W/m2
17:23 29.8 °F 26.7 °F 29.69 in West 25.3 mph 29.9 mph 88% 0.00 in 0.00 W/m2
Peotone Weather Data
Compliments of Weather Underground